Voltar ao catálogo

CZ-6A DEB

AtivoPO
NORAD 60684·DEBRIS·🇨🇳 China

Lançado Aug 6, 2024 de Taiyuan Satellite Launch Center

Loading…

Próximas Passagens (próximas 24 horas)

TLE

AtualizadoSource: Space-Track

Época: Sep 14, 2026, 09:58 UTC

1 60684U 24140CM  26257.41546065  .00000552  00000-0  25632-3 0  9991
2 60684  88.7881 245.7639 0052774 249.6805 109.8709 14.18610272108567

Acompanhe CZ-6A DEB em tempo real com AllMySat

Download on the App Store